Location: Asheville, NC
(35.6000°N, 82.5500°W)
Time: 04:04:12
(UTC-04:00)

Hubble Space Telescope - Pass Details

Date: 14 December 2017
Orbit: 537 x 541 km, 28.5° (Epoch: 16 July)

Event Time Altitude Azimuth Distance (km) Brightness Sun altitude
Rises 18:43:58 0° 258° (WSW) 2,676 6.1 -16.9°
Reaches altitude 10° 18:46:28 10° 246° (WSW) 1,785 4.7 -17.4°
Maximum altitude 18:49:57 26° 188° (S) 1,062 2.5 -18.1°
Enters shadow 18:52:21 16° 141° (SE) 1,449 2.7 -18.6°
